Location: La Brionne
(46.1728°N, 1.7849°E)
Time: 03:31:41
(UTC+00:00)

NOAA 18 - Visible Passes

Search period start: 29 March 2023 00:00
Search period end: 08 April 2023 00:00
Orbit: 840 x 859 km, 98.9° (Epoch: 28 March)

Date Brightness Start Highest point End Pass type
(mag) Time Alt. Az. Time Alt. Az. Time Alt. Az.
29 Mar 6.9 20:02:24 16° ENE 20:03:12 17° NE 20:06:35 10° NNE visible
29 Mar 5.7 21:44:22 56° NNW 21:44:22 56° NNW 21:48:42 10° NNW visible
29 Mar 7.8 23:26:21 12° WNW 23:26:21 12° WNW 23:27:10 10° WNW visible
30 Mar 7.1 19:49:57 13° ENE 19:51:12 14° NE 19:53:49 10° NNE visible
30 Mar 5.6 21:31:55 59° N 21:31:55 59° N 21:36:29 10° NNW visible
30 Mar 7.6 23:13:54 15° WNW 23:13:54 15° WNW 23:15:45 10° NW visible
31 Mar 7.3 19:37:48 10° ENE 19:39:13 11° NE 19:40:39 10° NE visible
31 Mar 5.5 21:19:28 55° NE 21:19:28 55° NE 21:24:14 10° N visible
31 Mar 7.3 23:01:26 19° WNW 23:01:26 19° WNW 23:04:02 10° NW visible
01 Apr 5.7 21:07:01 47° NE 21:07:01 47° NE 21:11:57 10° N visible
01 Apr 7.1 22:48:59 24° WNW 22:48:59 24° WNW 22:52:11 10° NW visible
02 Apr 5.9 20:54:34 39° ENE 20:54:34 39° ENE 20:59:38 10° N visible
02 Apr 6.7 22:36:32 30° WNW 22:36:32 30° WNW 22:40:14 10° NNW visible
03 Apr 6.1 20:42:07 31° ENE 20:42:25 32° ENE 20:47:16 10° N visible
03 Apr 6.4 22:24:05 38° WNW 22:24:05 38° WNW 22:28:12 10° NNW visible
04 Apr 6.4 20:29:40 25° ENE 20:30:20 26° ENE 20:34:51 10° N visible
04 Apr 6.0 22:11:38 48° WNW 22:11:38 48° WNW 22:16:07 10° NNW visible
05 Apr 6.6 20:17:13 20° ENE 20:18:17 21° ENE 20:22:21 10° NNE visible
05 Apr 5.6 21:59:10 60° WNW 21:59:10 60° WNW 22:03:59 10° NNW visible
06 Apr 6.9 20:04:45 16° ENE 20:06:15 18° ENE 20:09:47 10° NNE visible
06 Apr 5.3 21:46:43 74° NW 21:46:43 74° NW 21:51:48 10° NNW visible
06 Apr 7.7 23:28:41 12° WNW 23:28:41 12° WNW 23:30:01 10° WNW visible
07 Apr 7.1 19:52:18 12° ENE 19:54:14 14° NE 19:57:04 10° NNE visible
07 Apr 5.2 21:34:16 76° NE 21:34:16 76° NE 21:39:36 10° NNW visible
07 Apr 7.5 23:16:14 16° WNW 23:16:14 16° WNW 23:18:41 10° NW visible
